{"data":{"norad_id":59866,"epoch":"2026-05-25T02:29:26.199744Z","epoch_age_seconds":63404,"freshness":"FRESH","line1":"1 59866U 24098J   26145.10377546  .00000861  00000+0  40821-4 0  9991","line2":"2 59866  43.0019 188.7059 0001171 276.9071  83.1647 15.27576237113732","mean_motion":15.27576237,"eccentricity":0.0001171,"inclination_deg":43.0019,"raan_deg":188.7059,"arg_perigee_deg":276.9071,"mean_anomaly_deg":83.1647,"bstar":4.0821e-5,"rev_number":11373,"period_min":94.266980928429,"perigee_km":482.25691762721,"apogee_km":483.86381004982,"semimajor_km":6861.1973638385,"source":"CELESTRAK","updated_at":"2026-05-25T13:38:19.091907Z"}}